Location: Unspecified
(40.7945°N, 0.0000°E)
Time: 05:38:22
(UTC+00:00)

TIGRISAT - Pass Details

Date: 30 August 2019
Orbit: 605 x 689 km, 97.7° (Epoch: 14 September)

Event Time Altitude Azimuth Distance (km) Brightness Sun altitude
Rises 21:05:55 0° 9° (N) 2,998 ? -26.1°
Reaches altitude 10° 21:08:11 10° 7° (N) 2,068 ? -26.5°
Enters shadow 21:12:13 64° 324° (NW) 714 ? -27.0°
